Погода в Койнасе

Россия / Архангельская область     64°45′14″N   47°38′15″E
темп.,
°C
ветер,
м/с
пор.,
м/с
влажн.,
%
обл.,
%
осадки,
мм/ч
давл.,
гПа
погр.,
м
27 января, ср
ср2700:000ю2599100 1.8 1013164
03:00−3ююв2497100 2.6 1013138
06:00−4ююв2597100 0.6 1012211
09:00−6ююв3696100 0.9 1010246
12:00−5юв3695100 0.3 1009292
15:00−5юв3696100 0.6 1007251
18:00−4юв3697100 0.8 1005260
21:00−3ю2797100 2.6 1004371
28 января, чт
чт2800:00−4ююв2597100 0.6 1003200
03:00−6юв1297100 1.1 100229
06:00−6ссз009797 0.2 100221
09:00−7ссз119791 0.3 100521
12:00−9ссз249691 0.1 1008180
15:00−13ссз249691 0.2 1012171
18:00−16ссв249692 0.1 1015159
21:00−18св359694 0.1 1017185
29 января, пт
пт2900:00−20всв269789 0.1 1019205
03:00−20всв369793 0.1 1019206
06:00−19в3796100 0.1 1020257
09:00−19в4895100 0.3 1020288
12:00−17в4894100 0.1 1019301
15:00−16в4994100 0.1 1018333
18:00−16в41094100 0.1 1017374
21:00−14вюв51292100 0.1 1015446
30 января, сб
сб3000:00−13вюв51292100 0.1 1013460
03:00−13вюв51192100 0.1 1011443
06:00−13вюв51291100 0.0 1008496
09:00−12вюв51391100 0.1 1006552
12:00−14вюв51193100 0.1 1005466
15:00−15вюв51192100 0.2 1005466
18:00−15вюв51192100 0.1 1005441
21:00−15вюв41093100 0.1 1004391
31 января, вс
вс3100:00−16вюв4894100 0.1 1004330
03:00−16вюв3894100 0.1 1003351
06:00−17вюв3894100 0.1 1003337
09:00−17вюв3795100 0.3 1002348
12:00−17вюв3695100 0.4 1003319
15:00−17вюв2695100 0.6 1003274
18:00−17вюв2597100 0.1 1003184
21:00−17вюв249794 0.1 1003118